| time (UTC) | temp F | wind direction | speed MPH | gust MPH | rain 1hr in | rain 24hr in | rain mn in | humidity % | barometer mb |
| 20260502160203 | 65 | 297 | 3.0 | 8.0 | 0.00 | 0.00 | 0.00 | 51 | 1023.9 |
| 20260502130703 | 51 | 147 | 1.0 | 2.0 | 0.00 | 0.00 | 0.00 | 86 | 1023.5 |
| 20260502130204 | 51 | 146 | 1.0 | 3.0 | 0.00 | 0.00 | 0.00 | 86 | 1023.6 |
| 20260502123703 | 50 | 146 | 0.0 | 0.0 | 0.00 | 0.00 | 0.00 | 86 | 1022.8 |
| 20260502123203 | 50 | 146 | 0.0 | 2.0 | 0.00 | 0.00 | 0.00 | 86 | 1022.8 |
| 20260502120704 | 49 | 147 | 0.0 | 0.0 | 0.00 | 0.00 | 0.00 | 86 | 1022.1 |
| 20260502120203 | 49 | 147 | 0.0 | 2.0 | 0.00 | 0.00 | 0.00 | 86 | 1022.0 |
| 20260502113703 | 49 | 147 | 1.0 | 2.0 | 0.00 | 0.00 | 0.00 | 85 | 1021.8 |
| 20260502110703 | 50 | 147 | 0.0 | 0.0 | 0.00 | 0.00 | 0.00 | 84 | 1021.7 |
| 20260502110203 | 50 | 147 | 0.0 | 3.0 | 0.00 | 0.00 | 0.00 | 84 | 1021.7 |
| 20260502103703 | 51 | 144 | 1.0 | 2.0 | 0.00 | 0.00 | 0.00 | 83 | 1022.0 |
| 20260502103203 | 52 | 58 | 0.0 | 3.0 | 0.00 | 0.00 | 0.00 | 82 | 1022.0 |
| 20260502100703 | 52 | 18 | 1.0 | 3.0 | 0.00 | 0.00 | 0.00 | 82 | 1023.3 |
| 20260502100203 | 52 | 38 | 2.0 | 3.0 | 0.00 | 0.00 | 0.00 | 81 | 1023.4 |
| 20260502090703 | 52 | 340 | 1.0 | 5.0 | 0.00 | 0.00 | 0.00 | 76 | 1023.1 |
| 20260502090203 | 53 | 345 | 2.0 | 13.0 | 0.00 | 0.00 | 0.00 | 75 | 1023.1 |
| 20260502070703 | 53 | 168 | 0.0 | 1.0 | 0.00 | 0.00 | 0.00 | 68 | 1020.8 |
| 20260502070202 | 53 | 167 | 0.0 | 1.0 | 0.00 | 0.00 | 0.00 | 68 | 1020.9 |
| 20260502063703 | 52 | 167 | 0.0 | 0.0 | 0.00 | 0.00 | 0.00 | 69 | 1021.2 |
| 20260502063203 | 52 | 168 | 0.0 | 1.0 | 0.00 | 0.00 | 0.00 | 69 | 1021.2 |
| 20260502060703 | 53 | 173 | 0.0 | 0.0 | 0.00 | 0.00 | 0.00 | 69 | 1021.2 |
| 20260502060203 | 53 | 170 | 0.0 | 0.0 | 0.00 | 0.00 | 0.00 | 68 | 1021.3 |
| 20260502053703 | 54 | 168 | 0.0 | 0.0 | 0.00 | 0.00 | 0.00 | 65 | 1021.1 |
| 20260502053203 | 54 | 167 | 0.0 | 1.0 | 0.00 | 0.00 | 0.00 | 65 | 1021.1 |
| 20260502050704 | 55 | 167 | 0.0 | 1.0 | 0.00 | 0.00 | 0.00 | 63 | 1020.9 |
| 20260502050203 | 56 | 166 | 0.0 | 2.0 | 0.00 | 0.00 | 0.00 | 62 | 1021.0 |
| 20260502043702 | 56 | 166 | 0.0 | 1.0 | 0.00 | 0.00 | 0.00 | 62 | 1021.0 |
| 20260502043203 | 56 | 166 | 0.0 | 2.0 | 0.00 | 0.00 | 0.00 | 63 | 1021.0 |
| 20260502040703 | 57 | 166 | 0.0 | 2.0 | 0.00 | 0.00 | 0.00 | 61 | 1021.0 |
| 20260502040203 | 57 | 166 | 0.0 | 2.0 | 0.00 | 0.00 | 0.00 | 60 | 1021.1 |
| 20260502033203 | 59 | 168 | 1.0 | 3.0 | 0.00 | 0.00 | 0.00 | 59 | 1021.0 |
| 20260502030703 | 60 | 169 | 2.0 | 5.0 | 0.00 | 0.00 | 0.00 | 57 | 1020.9 |
| 20260502023703 | 60 | 149 | 1.0 | 3.0 | 0.00 | 0.00 | 0.00 | 55 | 1020.6 |
| 20260502023203 | 60 | 154 | 1.0 | 3.0 | 0.00 | 0.00 | 0.00 | 54 | 1020.5 |
| 20260502020703 | 62 | 152 | 0.0 | 1.0 | 0.00 | 0.00 | 0.00 | 51 | 1020.2 |
| 20260502020202 | 62 | 153 | 0.0 | 2.0 | 0.00 | 0.00 | 0.00 | 50 | 1020.1 |
| 20260502013703 | 63 | 153 | 0.0 | 1.0 | 0.00 | 0.00 | 0.00 | 50 | 1019.7 |
| 20260502013203 | 63 | 152 | 0.0 | 2.0 | 0.00 | 0.00 | 0.00 | 49 | 1019.6 |
| 20260502010704 | 65 | 153 | 1.0 | 3.0 | 0.00 | 0.00 | 0.00 | 45 | 1019.4 |
| 20260502010203 | 65 | 147 | 1.0 | 2.0 | 0.00 | 0.00 | 0.00 | 45 | 1019.3 |
| 20260502003203 | 66 | 146 | 0.0 | 7.0 | 0.00 | 0.00 | 0.00 | 44 | 1019.3 |
| 20260502000703 | 67 | 123 | 2.0 | 3.0 | 0.00 | 0.00 | 0.00 | 40 | 1019.0 |
| 20260502000204 | 67 | 103 | 0.0 | 6.0 | 0.00 | 0.00 | 0.00 | 41 | 1019.0 |
| 20260501233703 | 68 | 105 | 1.0 | 3.0 | 0.00 | 0.00 | 0.00 | 39 | 1019.0 |
| 20260501230703 | 69 | 24 | 1.0 | 3.0 | 0.00 | 0.00 | 0.00 | 38 | 1018.9 |
| 20260501223703 | 69 | 24 | 2.0 | 8.0 | 0.00 | 0.00 | 0.00 | 37 | 1018.8 |
| 20260501223203 | 70 | 51 | 1.0 | 7.0 | 0.00 | 0.00 | 0.00 | 38 | 1018.8 |
| 20260501220703 | 69 | 5 | 2.0 | 6.0 | 0.00 | 0.00 | 0.00 | 39 | 1018.8 |
| 20260501220203 | 69 | 347 | 3.0 | 9.0 | 0.00 | 0.00 | 0.00 | 36 | 1018.8 |
| 20260501213703 | 70 | 311 | 4.0 | 8.0 | 0.00 | 0.00 | 0.00 | 35 | 1019.0 |
| 20260501213204 | 69 | 339 | 2.0 | 10.0 | 0.00 | 0.00 | 0.00 | 38 | 1019.0 |
| 20260501210703 | 69 | 1 | 5.0 | 8.0 | 0.00 | 0.00 | 0.00 | 38 | 1019.3 |
| 20260501203703 | 70 | 102 | 2.0 | 6.0 | 0.00 | 0.00 | 0.00 | 38 | 1019.7 |
| 20260501203204 | 71 | 15 | 2.0 | 14.0 | 0.00 | 0.00 | 0.00 | 39 | 1019.8 |
| 20260501200703 | 68 | 346 | 4.0 | 10.0 | 0.00 | 0.00 | 0.00 | 40 | 1020.2 |
| 20260501200203 | 70 | 353 | 3.0 | 10.0 | 0.00 | 0.00 | 0.00 | 40 | 1020.2 |
| 20260501193703 | 69 | 75 | 3.0 | 9.0 | 0.00 | 0.00 | 0.00 | 42 | 1020.6 |
| 20260501193203 | 69 | 116 | 6.0 | 14.0 | 0.00 | 0.00 | 0.00 | 40 | 1020.7 |
| 20260501183704 | 69 | 104 | 3.0 | 8.0 | 0.00 | 0.00 | 0.00 | 39 | 1021.2 |
| 20260501183203 | 70 | 116 | 2.0 | 9.0 | 0.00 | 0.00 | 0.00 | 40 | 1021.4 |
| 20260501180703 | 68 | 99 | 2.0 | 8.0 | 0.00 | 0.00 | 0.00 | 42 | 1021.7 |
| 20260501173203 | 68 | 14 | 2.0 | 9.0 | 0.00 | 0.00 | 0.00 | 52 | 1021.9 |
| 20260501170703 | 66 | 100 | 2.0 | 8.0 | 0.00 | 0.00 | 0.00 | 50 | 1021.8 |
| 20260501170203 | 67 | 80 | 3.0 | 12.0 | 0.00 | 0.00 | 0.00 | 48 | 1021.9 |
| 20260501163703 | 65 | 145 | 3.0 | 8.0 | 0.00 | 0.00 | 0.00 | 53 | 1021.8 |
| 20260501163204 | 65 | 152 | 6.0 | 12.0 | 0.00 | 0.00 | 0.00 | 53 | 1021.8 |